Location: Martinez
(33.5170°N, 82.0760°W)
Time: 05:36:47

Hubble Space Telescope - Visible Passes

Search period start: 23 October 2016 00:00
Search period end: 02 November 2016 00:00
Orbit: 538 x 542 km, 28.5° (Epoch: 21 October)

Date Brightness Start Highest point End Pass type
(mag) Time Alt. Az. Time Alt. Az. Time Alt. Az.
30 Oct 3.6 07:04:50 10° S 07:06:26 12° SSE 07:08:02 10° SE visible
31 Oct 3.4 06:54:04 10° SSW 06:56:29 15° SSE 06:58:52 10° ESE visible
01 Nov 3.2 06:43:38 10° SSW 06:46:31 18° SSE 06:49:24 10° ESE visible
